STARLINK-32034, 60297

Orbit data source: Space-Track

STARLINK-32034, 60297 is a payload satellite owned by SpaceX/Seattle (US) in LEO that was launched on Sun, 28 Jul 2024 UTC via an FALCON 9 launch vehicle from the Air Force Eastern Test Range (AFETR). Payload-class satellites include a variety of spacecraft equipped with specific instruments for various scientific and technological missions. These include communications satellites like Starlink; space stations such as the ISS; scientific satellites like the Hubble; Earth observation satellites from companies like Planet Labs, Umbra, and HawkEye 360; GPS; miniature CubeSats for education and research; and military/defense satellites.

Loading next visibility...
Identifier
60297, 2024-132V
Orbit
LEO
Country
Flag of USUS
Related business
Manufacturer
SpaceX/Seattle
Mission
Operational Commercial Communications
Bus & Motor
STARLINK V2M, Unknown motor
Mass
730 kg wet, ~700 kg dry
Launch date (UTC)
2024-07-28 (2 years ago)
Launch vehicle
FALCON 9
Launch site
Air Force Eastern Test Range (AFETR)
Object type
Payload
Rocket body
Debris
Shape & HBR
Box + 2 Pan, 17.7 m
Radar Cross Section
33.884 m², Large (>1 m²)

Expand to show TLE details & history
Last TLE update: 9 hours ago

TLE from 9 hours ago
0 STARLINK-32034
1 60297U 24132V   26062.05652755  .00000018  00000-0  12733-4 0  9996
2 60297  53.1601  83.3228 0001305  95.3860 264.7290 15.30188257 90546
Epoch: 2026-03-03T01:21Z
TLE epoch observation values (Epoch: 2026-03-03T01:21:23.980Z)
Latitude
0.00001°
Longitude
-97.86817°
Altitude
476.232 km
Speed
7.629 km/s
True Right ascension
05h 33m 17s
True Declination
0° 00' 00"
Sunlit
Object was in daylight at epoch
Visualization orbit readout
Latitude
Unknown
Longitude
Unknown
Altitude
Unknown
Speed
Unknown
Apparent Right ascension
Unknown
Apparent Declination
Unknown
Sunlit
N/A
Visualization observer readout
Local Sidereal Time
13:46:03
Azimuth
Unknown
Elevation
Unknown
Doppler factor
Unknown
Orbital elements
Apogee altitude
476.401 km
Perigee altitude
474.612 km
Semi-major axis
6,853.644 km
Eccentricity
0.00013
Inclination
53.1601°
RAAN
83.3228°
Arg. of periapsis
95.386°
True anomaly
264.71411°
Mean anomaly
264.729°
Eccentric anomaly
264.72155°
Mean motion
3.82526 °/min
Orbital period
94.11 mins
BSTAR
0.000012733
Loading maneuver chart data...
Computing Atmospheric mass density...
Loading historical data...
Loading historical data...
Loading historical data...
Loading historical data...
Loading historical data...
Loading historical data...
Loading historical data...

Documentation

Showing up to 5 results
|